[[{"header":{"parameterUnit":"m.s-1","parameterCategory":1,"la1":30.2991,"la2":30.254,"lo1":-89.0895,"lo2":-89.0444,"dy":0.0017,"dx":0.0017,"nx":28,"ny":28,"refTime":"2025-06-21T09:00:00:Z","depth":0,"parameterNumber":2,"parameterNumberName":"U-component_of_WINDS"},"data":[0,0,0,0,0,0,0,0,0,0,0,0,0,0,0,0,0,0,0,0,0,0,0,0,0,0,0,0,0,0,0,0,0,0,0,0,0,0,0,0,0,0,0,0,0,0,0,0,0,0,0,0,0,0,0,0,0,0,-0.2303,-0.2303,0,-0.2322,-0.2322,-0.2323,-0.2314,-0.2313,-0.2313,-0.2312,-0.2334,-0.2335,-0.2336,0,0,0,0,0,0,0,0,0,0,0,0,0,-0.2261,-0.2262,-0.2303,-0.2303,-0.2303,-0.2322,-0.2322,-0.2323,-0.2314,-0.2313,-0.2313,-0.2312,-0.2334,-0.2335,-0.2336,0,0,0,0,0,0,0,0,0,0,0,0,0,-0.228,-0.2262,-0.2303,-0.2301,-0.2301,-0.2322,-0.2322,-0.2323,-0.2314,-0.2313,-0.2313,-0.2312,-0.2333,-0.2335,-0.2336,-0.236,0,0,-0.2341,-0.2342,0,0,0,0,0,0,0,0,-0.2279,-0.2281,-0.2301,-0.2301,-0.2302,-0.2315,-0.2316,-0.2335,-0.2314,-0.2309,-0.2312,-0.2311,-0.2328,-0.233,-0.2335,-0.2361,-0.2362,-0.2341,-0.2342,-0.2343,-0.2343,0,0,0,0,0,0,0,-0.2278,-0.2281,-0.2311,-0.2302,-0.2302,-0.23,-0.2302,-0.2319,-0.2323,-0.231,-0.2309,-0.2311,-0.2328,-0.2334,-0.2336,-0.2363,-0.2341,-0.2342,-0.2343,-0.2344,-0.2411,-0.2411,0,0,0,0,0,0,-0.2276,-0.228,-0.231,-0.2311,-0.2288,-0.2302,-0.2304,-0.2311,-0.2322,-0.2323,-0.2312,-0.2311,-0.2332,-0.2334,-0.2337,-0.2366,-0.2343,-0.2344,-0.2345,-0.241,-0.2411,-0.2412,0,0,0,0,0,0,-0.2275,-0.2279,-0.2309,-0.2295,-0.2299,-0.2303,-0.2312,-0.2312,-0.2318,-0.2324,-0.2325,-0.2317,-0.2331,-0.2334,-0.2355,-0.2367,-0.2345,-0.2346,-0.2409,-0.241,-0.2411,-0.2426,0,0,0,0,0,0,-0.2274,-0.2278,-0.2287,-0.2295,-0.23,-0.2326,-0.2312,-0.2313,-0.232,-0.2319,-0.2329,-0.233,-0.2331,-0.2352,-0.2356,-0.2369,-0.2347,-0.2408,-0.2409,-0.2411,-0.2424,-0.2427,-0.243,0,0,0,0,0,-0.2272,-0.2291,-0.2288,-0.2291,-0.231,-0.2327,-0.233,-0.2329,-0.2321,-0.233,-0.2335,-0.233,-0.2365,-0.2355,-0.2359,-0.2372,-0.2407,-0.2409,-0.2411,-0.2423,-0.2427,-0.243,0,0,0,0,0,0,-0.2284,-0.2292,-0.2288,-0.231,-0.2318,-0.2325,-0.2337,-0.2333,-0.2344,-0.2343,-0.2343,-0.2345,-0.2366,-0.2371,-0.2359,-0.2397,-0.2385,-0.2388,-0.2393,-0.2396,-0.2399,-0.2398,-0.2349,0,0,0,0,0,-0.2289,-0.2301,-0.2307,-0.2326,-0.233,-0.2333,-0.234,-0.2339,-0.2348,-0.2351,-0.2357,-0.2366,-0.2379,-0.2388,-0.24,-0.2425,-0.2428,-0.2436,-0.2439,-0.2441,-0.2444,-0.2458,-0.2463,-0.2418,-0.2418,-0.2418,0,0,-0.23,-0.2305,-0.2313,-0.2328,-0.2334,-0.2348,-0.2336,-0.235,-0.236,-0.2354,-0.2373,-0.2378,-0.2388,-0.2411,-0.2421,-0.2415,-0.2457,-0.2444,-0.2446,-0.2447,-0.2461,-0.2465,-0.2469,-0.2419,-0.2419,-0.2419,0,0,-0.2326,-0.2331,-0.2347,-0.2353,-0.2363,-0.2365,-0.2369,-0.2377,-0.238,-0.2399,-0.2395,-0.2407,-0.243,-0.2438,-0.2444,-0.2474,-0.2471,-0.2478,-0.2494,-0.2508,-0.2512,-0.2515,-0.2527,-0.2531,-0.2481,-0.2481,-0.2481,0,-0.2338,-0.2357,-0.2356,-0.2371,-0.2378,-0.2372,-0.2389,-0.2396,-0.2409,-0.2415,-0.2408,-0.2436,-0.2443,-0.2468,-0.2475,-0.2481,-0.2486,-0.2478,-0.2511,-0.2514,-0.2517,-0.2528,-0.2533,-0.2482,-0.2482,-0.2482,-0.2482,0,-0.2372,-0.2386,-0.2398,-0.241,-0.2419,-0.2435,-0.2437,-0.2446,-0.2444,-0.2447,-0.2468,-0.2476,-0.249,-0.2496,-0.2495,-0.2521,-0.2517,-0.2511,-0.2499,-0.2522,-0.2533,-0.2537,-0.2483,-0.2483,-0.2483,-0.2482,0,0,-0.2406,-0.2418,-0.2423,-0.2429,-0.2439,-0.245,-0.2466,-0.2479,-0.2488,-0.2497,-0.2511,-0.2531,-0.2525,-0.2533,-0.2533,-0.2545,-0.257,-0.2537,-0.2538,-0.2544,-0.2601,-0.2606,-0.2611,-0.2567,-0.2568,-0.2569,-0.26,0,-0.2434,-0.2462,-0.2461,-0.2487,-0.25,-0.2495,-0.2509,-0.2518,-0.2521,-0.2533,-0.2537,-0.2551,-0.2542,-0.2547,-0.2559,-0.2564,-0.2581,-0.2562,-0.2582,-0.2582,-0.258,-0.2616,-0.2622,-0.2651,-0.2604,-0.2605,-0.2605,0,-0.247,-0.248,-0.2508,-0.2516,-0.2522,-0.2535,-0.2548,-0.2559,-0.2569,-0.257,-0.2579,-0.2578,-0.2595,-0.2583,-0.2607,-0.2594,-0.2602,-0.2606,-0.2607,-0.261,-0.2596,-0.262,-0.266,-0.2665,-0.2611,-0.2611,-0.261,0,-0.2494,-0.2514,-0.2533,-0.2539,-0.2549,-0.2559,-0.2564,-0.2572,-0.2581,-0.2592,-0.2598,-0.2611,-0.2619,-0.263,-0.2632,-0.2623,-0.2658,-0.2645,-0.2661,-0.2661,-0.2669,-0.2668,-0.2711,-0.2673,-0.2673,-0.2672,-0.2672,0,-0.2525,-0.2542,-0.2544,-0.2556,-0.2576,-0.2575,-0.2595,-0.2599,-0.2607,-0.2621,-0.2617,-0.263,-0.2631,-0.2645,-0.2647,-0.2668,-0.2671,-0.2674,-0.2674,-0.2675,-0.2675,-0.2681,-0.2679,-0.2674,-0.2673,-0.2673,-0.2673,0,-0.2555,-0.2557,-0.2578,-0.2586,-0.2588,-0.2602,-0.261,-0.2622,-0.2625,-0.2642,-0.2646,-0.2651,-0.2667,-0.267,-0.2689,-0.269,-0.2716,-0.2714,-0.2712,-0.2712,-0.2728,-0.2727,-0.2777,-0.2784,-0.274,-0.274,-0.2741,0,-0.2576,-0.2589,-0.2598,-0.2607,-0.2612,-0.2625,-0.2634,-0.2634,-0.2644,-0.2656,-0.2667,-0.2682,-0.2695,-0.272,-0.2726,-0.2741,-0.274,-0.2757,-0.2742,-0.2743,-0.2742,-0.2741,-0.2743,-0.276,-0.276,-0.276,-0.2761,0,-0.2612,-0.2612,-0.2624,-0.2637,-0.2647,-0.2657,-0.2667,-0.2674,-0.2676,-0.2687,-0.2703,-0.2712,-0.2732,-0.2747,-0.2762,-0.2768,-0.2766,-0.2765,-0.277,-0.2771,-0.277,-0.2772,-0.2721,-0.2764,-0.2764,-0.2764,-0.2763,-0.2763,-0.2639,-0.265,-0.2659,-0.2673,-0.268,-0.2689,-0.2701,-0.2705,-0.2718,-0.2734,-0.2733,-0.2751,-0.2761,-0.2781,-0.2788,-0.2803,-0.2797,-0.2804,-0.2806,-0.2808,-0.2809,-0.2767,-0.2805,-0.2805,-0.2805,-0.2805,-0.2805,0,-0.2676,-0.2681,-0.2694,-0.2707,-0.2718,-0.2713,-0.2724,-0.2734,-0.2749,-0.2759,-0.2771,-0.279,-0.2805,-0.2813,-0.2828,-0.2839,-0.2838,-0.2843,-0.2842,-0.2844,-0.2813,-0.2807,-0.2843,-0.2843,-0.2843,-0.2843,-0.2843,-0.2843,-0.2697,-0.2716,-0.2718,-0.2741,-0.2747,-0.2764,-0.277,-0.2779,-0.2787,-0.2808,-0.282,-0.2825,-0.2834,-0.285,-0.2864,-0.2866,-0.2872,-0.2878,-0.288,-0.285,-0.2846,-0.2843,-0.2838,-0.2879,-0.2879,-0.291,-0.291,-0.2911]},{"header":{"parameterUnit":"m.s-1","parameterCategory":1,"la1":30.2991,"la2":30.254,"lo1":-89.0895,"lo2":-89.0444,"dy":0.0017,"dx":0.0017,"nx":28,"ny":28,"refTime":"2025-06-21T09:00:00:Z","depth":0,"parameterNumber":3,"parameterNumberName":"V-component_of_WINDS"},"data":[0,0,0,0,0,0,0,0,0,0,0,0,0,0,0,0,0,0,0,0,0,0,0,0,0,0,0,0,0,0,0,0,0,0,0,0,0,0,0,0,0,0,0,0,0,0,0,0,0,0,0,0,0,0,0,0,0,0,3.4597,3.4598,0,3.4619,3.462,3.462,3.457,3.4568,3.4567,3.4565,3.4586,3.4588,3.459,0,0,0,0,0,0,0,0,0,0,0,0,0,3.451,3.4512,3.4597,3.4598,3.4598,3.4619,3.462,3.462,3.457,3.4568,3.4566,3.4564,3.4585,3.4588,3.459,0,0,0,0,0,0,0,0,0,0,0,0,0,3.4542,3.4513,3.4597,3.4576,3.4574,3.4619,3.462,3.462,3.457,3.4568,3.4566,3.4563,3.4584,3.4587,3.459,3.4657,0,0,3.46,3.4601,0,0,0,0,0,0,0,0,3.454,3.4545,3.4579,3.4577,3.4575,3.4589,3.4596,3.4632,3.4571,3.4572,3.4565,3.4562,3.4589,3.4591,3.4601,3.4658,3.4659,3.46,3.4602,3.4603,3.4604,0,0,0,0,0,0,0,3.4538,3.4544,3.4606,3.4579,3.4577,3.4564,3.4566,3.4603,3.4593,3.4571,3.4568,3.4571,3.4588,3.4598,3.4601,3.466,3.46,3.4603,3.4605,3.4606,3.4771,3.4774,0,0,0,0,0,0,3.4539,3.4542,3.4605,3.4607,3.4551,3.4568,3.457,3.4587,3.4593,3.4591,3.4573,3.4569,3.4594,3.4597,3.4601,3.4679,3.4603,3.4606,3.4608,3.4769,3.4772,3.4775,0,0,0,0,0,0,3.4537,3.4545,3.4604,3.4573,3.458,3.4572,3.4592,3.4589,3.4599,3.4594,3.4592,3.4586,3.4592,3.4597,3.4644,3.4679,3.4608,3.461,3.4766,3.477,3.4773,3.4835,0,0,0,0,0,0,3.4535,3.4544,3.457,3.4574,3.4582,3.4647,3.4594,3.4591,3.4605,3.4599,3.4605,3.4604,3.4591,3.4639,3.4647,3.4682,3.4613,3.4763,3.4768,3.4772,3.483,3.484,3.4849,0,0,0,0,0,3.4532,3.4587,3.4572,3.458,3.4614,3.4649,3.4653,3.4637,3.4608,3.4633,3.463,3.4604,3.4674,3.4644,3.4652,3.4689,3.476,3.4766,3.4772,3.4825,3.4838,3.4849,0,0,0,0,0,0,3.4587,3.4587,3.457,3.4629,3.4639,3.4641,3.4672,3.4652,3.467,3.4664,3.4643,3.4645,3.4695,3.4697,3.4664,3.4753,3.4712,3.472,3.475,3.4762,3.4772,3.477,3.4615,0,0,0,0,0,3.4606,3.4635,3.4633,3.4685,3.4691,3.4681,3.4695,3.4682,3.4692,3.4696,3.4696,3.4706,3.473,3.4747,3.4769,3.483,3.483,3.4859,3.4869,3.4877,3.4883,3.4914,3.4927,3.4794,3.4794,3.4793,0,0,3.4645,3.4649,3.4668,3.4696,3.4702,3.4732,3.4685,3.4718,3.474,3.4701,3.4744,3.4745,3.4755,3.4809,3.4832,3.4812,3.492,3.4884,3.4891,3.4893,3.4922,3.4934,3.4945,3.4797,3.4797,3.4796,0,0,3.4731,3.4738,3.4781,3.4788,3.4799,3.4792,3.4802,3.4807,3.4805,3.4849,3.482,3.4845,3.4888,3.4895,3.4905,3.4994,3.497,3.5002,3.5053,3.5083,3.5094,3.5103,3.5133,3.5144,3.5008,3.5008,3.5008,0,3.4778,3.4822,3.4805,3.484,3.4853,3.4819,3.4862,3.487,3.4887,3.4896,3.4873,3.4925,3.4929,3.4983,3.5005,3.5015,3.5025,3.5,3.5094,3.5103,3.5111,3.5139,3.5151,3.5012,3.5012,3.5011,3.5011,0,3.4879,3.491,3.4943,3.4961,3.4977,3.5016,3.5003,3.5022,3.5007,3.5002,3.5046,3.505,3.5072,3.5084,3.507,3.5136,3.5123,3.5097,3.5055,3.5128,3.5154,3.5165,3.5017,3.5016,3.5015,3.5014,0,0,3.5,3.5007,3.502,3.5027,3.5036,3.5059,3.5096,3.5117,3.5133,3.5146,3.5175,3.5212,3.5188,3.5199,3.5185,3.5212,3.528,3.5183,3.5183,3.5199,3.5352,3.537,3.5383,3.5265,3.5267,3.5269,3.535,0,3.5084,3.5148,3.5133,3.5195,3.5222,3.5191,3.5223,3.5232,3.5228,3.525,3.5246,3.5272,3.5239,3.5245,3.5271,3.5267,3.531,3.5261,3.5291,3.5292,3.5288,3.5397,3.5416,3.5493,3.5361,3.5362,3.5364,0,3.519,3.5207,3.5273,3.5276,3.5287,3.5316,3.5334,3.5356,3.5365,3.536,3.5373,3.5354,3.5389,3.5348,3.5396,3.5362,3.5374,3.5374,3.5376,3.5377,3.5331,3.5399,3.5517,3.5528,3.538,3.5379,3.5377,0,3.527,3.5309,3.5353,3.536,3.5366,3.5387,3.539,3.5397,3.541,3.5426,3.5434,3.5454,3.5464,3.548,3.5466,3.5438,3.5515,3.5474,3.5511,3.5512,3.5528,3.5527,3.5648,3.5538,3.5538,3.5538,3.5538,0,3.5364,3.5405,3.5389,3.5415,3.546,3.5442,3.5486,3.5486,3.5492,3.5517,3.5492,3.5516,3.5497,3.552,3.551,3.555,3.5555,3.5551,3.5548,3.5553,3.5553,3.5559,3.5553,3.5541,3.554,3.554,3.5539,0,3.546,3.5451,3.5496,3.5498,3.55,3.5532,3.5533,3.5557,3.5552,3.5584,3.5591,3.5582,3.5607,3.5596,3.5622,3.5615,3.5666,3.5656,3.5663,3.566,3.5698,3.5694,3.5826,3.5841,3.5723,3.5724,3.5725,0,3.552,3.5551,3.5556,3.5571,3.5576,3.5601,3.5615,3.5599,3.5614,3.5626,3.5648,3.5671,3.5688,3.573,3.5725,3.5745,3.5734,3.5779,3.5737,3.5741,3.5733,3.5731,3.5733,3.5787,3.5789,3.579,3.5791,0,3.5627,3.5621,3.5642,3.5661,3.5678,3.5692,3.5704,3.5718,3.5702,3.572,3.5746,3.5759,3.5786,3.5808,3.5825,3.5828,3.5806,3.5804,3.5814,3.5818,3.582,3.5818,3.5684,3.5801,3.58,3.5799,3.5799,3.5798,3.5706,3.5731,3.5738,3.5762,3.5769,3.5781,3.5803,3.5801,3.5822,3.5842,3.5831,3.5861,3.5868,3.5888,3.5894,3.5916,3.5898,3.5912,3.5915,3.5919,3.5923,3.5818,3.5919,3.5919,3.5918,3.5918,3.5918,0,3.581,3.5813,3.5835,3.5853,3.5871,3.585,3.5862,3.5879,3.5905,3.5913,3.5931,3.5959,3.5981,3.5978,3.5998,3.6016,3.6006,3.6021,3.6019,3.602,3.5939,3.5928,3.6029,3.6029,3.6029,3.6029,3.6029,3.6029,3.5867,3.5907,3.5902,3.5946,3.5948,3.5977,3.5985,3.5996,3.6002,3.6035,3.6053,3.6051,3.6055,3.6075,3.6093,3.6092,3.6099,3.6118,3.6113,3.6037,3.6026,3.6015,3.6005,3.612,3.612,3.6192,3.6192,3.6193]}]]